Regional Weather Roundup
Issued by NWS Sioux Falls, SD

Home | Current Version | Previous Version | Graphics & Text | Print | Product List | Glossary On
Versions: 1 2 3 4 5 6 7 8 9 10 11 12 13 14 15 16 17 18 19 20 21 22 23 24 25 26 27 28 29 30 31 32 33 34 35 36 37 38 39 40 41 42 43 44 45 46 47 48 49 50
000
ASUS43 KFSD 300210
RWRFSD

WEATHER ROUNDUP FOR SE SOUTH DAKOTA/SW MINNESOTA/NW IOWA
NATIONAL WEATHER SERVICE SIOUX FALLS SD
800 PM CST THU JAN 29 2015

NOTE: "FAIR" INDICATES FEW OR NO CLOUDS BELOW 12,000 FEET WITH NO
SIGNIFICANT WEATHER AND OR OBSTRUCTIONS TO VISIBILITY.


SDZ038>040-050-052>070-300300-
SOUTHEAST SOUTH DAKOTA

CITY           SKY/WX    TMP DP  RH WIND       PRES   REMARKS
CHAMBERLAIN    CLEAR     22  18  85 SE3       30.49S
HURON          CLEAR     22  18  85 NE8       30.52S WCI  12
MADISON        CLOUDY    23  23 100 N8        30.50R WCI  14
MITCHELL       CLEAR     23  19  85 NE3       30.54R
SIOUX FALLS    CLOUDY    24  17  74 NW9       30.52R WCI  14
WINNER         FAIR      27  19  72 SE8       30.47S WCI  19
YANKTON        CLEAR     25  19  80 N7        30.54S WCI  17
$$

MNZ071-072-080-081-089-090-097-098-300300-
SOUTHWEST MINNESOTA

CITY           SKY/WX    TMP DP  RH WIND       PRES   REMARKS
FAIRMONT       CLEAR     19   9  63 NW17G25   30.47R WCI   4
JACKSON        CLEAR     21  16  79 NW14      30.49R WCI   8
LUVERNE        CLOUDY    28  21  74 N8        30.51R WCI  20
MARSHALL       CLOUDY    19  10  68 N16       30.53R WCI   5
MONTEVIDEO     FLURRIES  16  12  86 N12       30.55R WCI   3
PIPESTONE      MOCLDY    21  18  86 N7        30.49R WCI  13
REDWOOD FALLS  CLEAR     18  10  71 NW9G21    30.52R WCI   7
TRACY          CLOUDY    20  15  81 N16       30.52R WCI   6
WINDOM         CLEAR     18  14  86 NW17G25   30.49R WCI   2
WORTHINGTON    MOCLDY    19  14  79 N12       30.49S WCI   7
$$

IAZ001>003-012>014-020>022-031-032-NEZ013-014-SDZ071-300300-
NORTHWEST IOWA

CITY           SKY/WX    TMP DP  RH WIND       PRES   REMARKS
CHEROKEE       CLOUDY    28  22  78 NW10      30.51R WCI  19
DENISON        CLOUDY    30  23  74 N14       30.48R WCI  20
ESTHERVILLE    CLEAR     20  16  84 NW21      30.49R WCI   4
LE MARS        CLOUDY    28  23  80 N12       30.53R WCI  18
ORANGE CITY    CLOUDY    28  21  74 NW13      30.51R WCI  18
SHELDON        CLOUDY    27  21  80 N12       30.49R WCI  16
SIOUX CITY     CLOUDY    31  22  69 N15       30.52R WCI  20
SPENCER        MOCLDY    24  17  74 N14       30.49R WCI  12
STORM LAKE     CLOUDY    27  21  80 N13G18    30.49R WCI  16
$$

ABBREVIATIONS USED IN REMARKS
   TC - TEMPERATURE IN CELSIUS
  WCI - WIND CHILL INDEX
   HX - HEAT INDEX
  VSB - VISIBILITY



USA.gov is the U.S. government's official web portal to all federal, state and local government web resources and services.